Weather History for Northway, AK

Change the Weather History Date:

Monday, August 26, 2013

  Actual Average Record
Temperature  
Mean Temperature 46 °F -  
Max Temperature 61 °F 63 °F 81 °F (1981)
Min Temperature 32 °F 40 °F 25 °F (1965)
Degree Days  
Heating Degree Days 19    
Moisture  
Dew Point 37 °F    
Average Humidity 72    
Maximum Humidity 100    
Minimum Humidity 38    
Precipitation  
Precipitation 0.00 in - - ()
Sea Level Pressure  
Sea Level Pressure 29.83 in    
Wind  
Wind Speed 0 mph (East)    
Max Wind Speed 6 mph    
Max Gust Speed -    
Visibility 10 miles    
Events Fog , Snow    
Averages and records for this station are not official NWS values.
T = Trace of Precipitation, MM = Missing Value Source: NWS Daily Summary

Daily Weather History Graph

Daily Weather History Graph

Search for Another Location

Airport:

Trip Planner

Search our weather history database for the weather conditions in past years. The results will help you decide how hot, cold, wet, or windy it might be!

Date:

Astronomy

Aug. 26, 2013 Rise Set
Actual Time 5:58 AM AKDT 8:58 PM AKDT
Civil Twilight 5:05 AM AKDT 9:50 PM AKDT
Nautical Twilight 3:49 AM AKDT 11:05 PM AKDT
Astronomical Twilight 2:01 AM AKDT 12:56 AM AKDT
Moon 9:54 PM AKDT (8/26) 2:26 PM AKDT (8/26)
Length of Visible Light 16h 45m
Length of Day
14h 59m
Waning Gibbous, 65% of the Moon is Illuminated
Aug 26
Waning Gibbous
Aug 28
Last Quarter
Sep 5
New
Sep 12
First Quarter
Sep 19
Full

Hourly Weather History & Observations

Time (AKDT) Temp. Windchill Dew Point Humidity Pressure Visibility Wind Dir Wind Speed Gust Speed Precip Events Conditions
12:53 AM 42.1 °F - 39.9 °F 92% 29.83 in 10.0 mi Calm Calm - N/A   Mostly Cloudy
1:53 AM 37.9 °F - 37.0 °F 97% 29.83 in 9.0 mi Calm Calm - 0.00 in Snow Light Snow
2:53 AM 37.0 °F - 36.0 °F 96% 29.83 in 10.0 mi Calm Calm - N/A   Mostly Cloudy
3:53 AM 35.1 °F - 34.0 °F 96% 29.84 in 10.0 mi Calm Calm - N/A   Mostly Cloudy
4:53 AM 34.0 °F - 32.0 °F 92% 29.85 in 10.0 mi Calm Calm - N/A   Scattered Clouds
5:53 AM 32.0 °F - 30.9 °F 96% 29.85 in 10.0 mi Calm Calm - N/A Fog Patches of Fog
6:53 AM 32.0 °F - 32.0 °F 100% 29.86 in 10.0 mi Calm Calm - N/A   Clear
7:53 AM 37.9 °F - 36.0 °F 93% 29.86 in 10.0 mi Calm Calm - N/A   Clear
8:53 AM 41.0 °F - 37.9 °F 89% 29.85 in 10.0 mi Calm Calm - N/A   Clear
9:53 AM 45.0 °F - 39.0 °F 80% 29.85 in 10.0 mi Calm Calm - N/A   Scattered Clouds
10:53 AM 48.9 °F - 39.9 °F 71% 29.84 in 10.0 mi Calm Calm - N/A   Scattered Clouds
11:53 AM 53.1 °F - 39.9 °F 61% 29.83 in 10.0 mi Calm Calm - N/A   Scattered Clouds
12:53 PM 55.9 °F - 39.0 °F 53% 29.82 in 10.0 mi Calm Calm - N/A   Scattered Clouds
1:53 PM 57.0 °F - 37.9 °F 49% 29.82 in 10.0 mi Calm Calm - N/A   Scattered Clouds
2:53 PM 57.9 °F - 37.9 °F 47% 29.82 in 10.0 mi Calm Calm - N/A   Scattered Clouds
3:53 PM 60.1 °F - 37.0 °F 42% 29.81 in 10.0 mi Calm Calm - N/A   Scattered Clouds
4:53 PM 60.1 °F - 36.0 °F 41% 29.81 in 10.0 mi ESE 3.5 mph - N/A   Scattered Clouds
5:53 PM 60.1 °F - 37.9 °F 44% 29.81 in 10.0 mi NE 5.8 mph - N/A   Scattered Clouds
6:53 PM 60.1 °F - 34.0 °F 38% 29.81 in 10.0 mi Calm Calm - N/A   Scattered Clouds
7:53 PM 57.0 °F - 37.0 °F 47% 29.81 in 10.0 mi East 4.6 mph - N/A   Clear
8:53 PM 52.0 °F - 37.9 °F 59% 29.82 in 10.0 mi East 3.5 mph - N/A   Clear
9:53 PM 46.0 °F 44.8 °F 37.9 °F 73% 29.83 in 10.0 mi East 3.5 mph - N/A   Scattered Clouds
10:53 PM 44.1 °F - 37.9 °F 79% 29.84 in 10.0 mi Calm Calm - N/A   Scattered Clouds
11:53 PM 41.0 °F - 37.0 °F 86% 29.85 in 10.0 mi Calm Calm - N/A   Partly Cloudy